Location: Lane
(33.5226°N, 79.8788°W)
Time: 11:21:57
(UTC+00:00)

Explorer 7 - Pass Details

Date: 04 October 2022
Orbit: 481 x 665 km, 50.3° (Epoch: 26 November)

Event Time Altitude Azimuth Distance (km) Brightness Sun altitude
Rises 19:42:16 0° 320° (NW) 2,960 10.6 37.3°
Reaches altitude 10° 19:45:50 10° 347° (NNW) 2,015 9.6 36.7°
Maximum altitude 19:48:07 13° 16° (NNE) 1,772 9.1 36.3°
Drops below altitude 10° 19:50:21 10° 46° (NE) 1,961 9.2 36.0°
Sets 19:53:43 0° 74° (ENE) 2,815 10.0 35.4°
